Weather Roundup
Issued by NWS Corpus Christi, TX

Home | Current Version | Previous Version | Text Only | Print | Product List | Glossary On
Versions: 1 2 3 4 5 6 7 8 9 10 11 12 13 14 15 16 17 18 19 20 21 22 23 24 25 26 27 28 29 30 31 32 33 34 35 36 37 38 39 40 41 42 43 44 45 46 47 48 49 50
000
ASUS44 KCRP 040310
HRRCRP

SOUTH TEXAS REGIONAL WEATHER ROUNDUP
NATIONAL WEATHER SERVICE CORPUS CHRISTI TX
900 PM CST TUE MAR 03 2015


TXZ229>244-040400-
...CORPUS CHRISTI AREA OBSERVATIONS...

CITY           SKY/WX    TMP DP  RH WIND       PRES   REMARKS
CORPUS CHRISTI CLOUDY    68  67  96 S23       29.83R FOG
NAS CORPUS CHR FOG       66  66 100 SE15      29.84R VSB 1/4
ROCKPORT       FOG       64  63  96 SE12      29.85R VSB 1/2
KINGSVILLE NAS CLOUDY    68  68 100 SE16      29.82R FOG
ALICE          FOG       67  65  93 SE16      29.81R VSB 1
FALFURRIAS       N/A     62  60  94 E6        29.80S
$$

...VICTORIA AREA OBSERVATIONS...

CITY           SKY/WX    TMP DP  RH WIND       PRES   REMARKS
VICTORIA       CLOUDY    68  67  96 SE15      29.86R
BEEVILLE       CLOUDY    66  66 100 SE12      29.83R FOG
PLEASANTON     RAIN      58  57  97 NE5       29.86S
SAN ANTONIO    DRZL/FOG  59  57  93 CALM      29.88R VSB 1/4
$$

...LAREDO AREA OBSERVATIONS...

CITY           SKY/WX    TMP DP  RH WIND       PRES   REMARKS
LAREDO         PTCLDY    64  62  93 NE6       29.83R
COTULLA        CLOUDY    59  57  93 NE7       29.85R FOG
DEL RIO        CLOUDY    57  51  80 SE8       29.83R
MCALLEN        CLEAR     70  65  84 SE10      29.82R
HEBBRONVILLE   HVY RAIN N/A N/A N/A NE6       29.82R VSB 1
$$

...OTHER TEXAS OBSERVATIONS...

CITY           SKY/WX    TMP DP  RH WIND       PRES   REMARKS
BROWNSVILLE    MOCLDY    69  68  96 SE14      29.83S
HOUSTON        MOCLDY    70  66  87 S9        29.91R
COL. STATION   CLEAR     68  63  84 S9        29.88R
AUSTIN         MOCLDY    57  57 100 S5        29.87S FOG
WACO           CLOUDY    51  51 100 CALM      29.87R FOG
FORT WORTH     CLOUDY    52  51  97 CALM      29.87R
WICHITA FALLS  MOCLDY    50  47  89 E7        29.86R
LUBBOCK        CLOUDY    53  42  66 S7        29.84R
EL PASO        LGT RAIN  56  45  66 S17       29.87R
$$

...MARINE OBSERVATIONS...

STATION/POSITION TIME  SKY/WX   TEMP    WIND        PRES    VSBY  WAVE   SWELL
                                AIR SEA DIR/SP/G                  HT/PER HT/PER
                 (UTC)          (F)     (DEG/KT/KT) (MB)    (MI)  (FT/S) (FT/S)
PORT ARANSAS     0300            63 58  120/ 12/ 13 1010.8F
BUOY 90 E PORT A 0300            71 69  140/ 17/ 21 1011.8S         4/ 5
BUOY 45 SE BAFFI 0300            69 67  150/  8/ 10 1010.9R         3/ 5   3/ 5
BUOY 200 E PT IS 0300            72 71  140/ 14/ 17 1013.5R         3/ 5   2/ 7
BUOY 15 E GALVES 0300            63 61  120/  6/  8 1013.0R         2/ 4   2/ 4
$$


USA.gov is the U.S. government's official web portal to all federal, state and local government web resources and services.